When you browse on this site, cookies collect data to enhance your experience and personalize the content and advertising you see.
Visit our Privacy Policy to learn more. By continuing to use the site, you agree to this use of cookies and data.
  • In Czech Republic
  • List of Countries
  • For 7 days
  • Water Temperature
  • Satellite Maps
  • Weather Map
  • Weather Widgets
  • user-avatar
    Login

    Hourly Weather Shusha

    Today, 17 February, Sunday

    Time Temperature Precipitation Wind Pressure Humidity
    00:00 0°C° 0 mm 1 mps 655 mmHg 72%
    01:00 0°C° 0 mm 1 mps 655 mmHg 72%
    02:00 0°C° 0 mm 1 mps 655 mmHg 72%
    03:00 0°C° 0 mm 1 mps 655 mmHg 72%
    04:00 0°C° 0 mm 1 mps 655 mmHg 73%
    05:00 0°C° 0 mm 1 mps 655 mmHg 74%
    06:00 -1°C° 0 mm 0 mps 655 mmHg 75%
    07:00 0°C° 0 mm 1 mps 656 mmHg 73%
    08:00 +1°C° 0 mm 1 mps 656 mmHg 71%
    09:00 +2°C° 0 mm 1 mps 657 mmHg 69%
    10:00 +3°C° 0 mm 1 mps 657 mmHg 68%
    11:00 +2°C° 0 mm 2 mps 657 mmHg 67%
    12:00 +3°C° 0 mm 2 mps 657 mmHg 66%
    13:00 +3°C° 0 mm 2 mps 657 mmHg 65%
    14:00 +3°C° 0 mm 2 mps 656 mmHg 64%
    15:00 +4°C° 0 mm 2 mps 656 mmHg 63%
    16:00 +3°C° 0 mm 2 mps 656 mmHg 64%
    17:00 +2°C° 0 mm 2 mps 656 mmHg 66%
    18:00 +2°C° 0 mm 1 mps 656 mmHg 68%
    19:00 +1°C° 0 mm 1 mps 656 mmHg 67%
    20:00 +1°C° 0 mm 1 mps 657 mmHg 66%
    21:00 +1°C° 0 mm 1 mps 657 mmHg 66%
    22:00 +1°C° 0 mm 1 mps 657 mmHg 63%
    23:00 0°C° 0 mm 1 mps 657 mmHg 61%

    Tomorrow, 18 February, Monday

    Time Temperature Precipitation Wind Pressure Humidity
    00:00 0°C° 0 mm 1 mps 657 mmHg 59%
    01:00 0°C° 0 mm 1 mps 656 mmHg 58%
    02:00 0°C° 0 mm 1 mps 656 mmHg 57%
    03:00 0°C° 0 mm 1 mps 656 mmHg 56%
    04:00 0°C° 0 mm 1 mps 656 mmHg 56%
    05:00 0°C° 0 mm 1 mps 656 mmHg 55%
    06:00 -2°C° 0 mm 2 mps 655 mmHg 55%
    07:00 +1°C° 0 mm 1 mps 655 mmHg 53%
    08:00 +2°C° 0 mm 1 mps 656 mmHg 51%
    09:00 +4°C° 0 mm 1 mps 656 mmHg 49%
    10:00 +5°C° 0 mm 1 mps 655 mmHg 49%
    11:00 +6°C° 0 mm 1 mps 655 mmHg 48%
    12:00 +5°C° 0 mm 2 mps 654 mmHg 48%
    13:00 +6°C° 0 mm 2 mps 654 mmHg 48%
    14:00 +6°C° 0 mm 2 mps 653 mmHg 48%
    15:00 +6°C° 0 mm 2 mps 653 mmHg 48%
    16:00 +6°C° 0 mm 1 mps 653 mmHg 51%
    17:00 +4°C° 0 mm 1 mps 652 mmHg 54%
    18:00 +3°C° 0 mm 1 mps 652 mmHg 57%
    19:00 +3°C° 0 mm 1 mps 652 mmHg 58%
    20:00 +2°C° 0 mm 1 mps 653 mmHg 58%
    21:00 +2°C° 0 mm 1 mps 653 mmHg 59%
    22:00 +2°C° 0 mm 1 mps 653 mmHg 59%
    23:00 +1°C° 0 mm 1 mps 653 mmHg 59%

    Day after tomorrow, 19 February, Tuesday

    Time Temperature Precipitation Wind Pressure Humidity
    00:00 +1°C° 0 mm 1 mps 653 mmHg 59%
    01:00 +1°C° 0 mm 1 mps 653 mmHg 62%
    02:00 0°C° 0 mm 1 mps 653 mmHg 64%
    03:00 0°C° 0 mm 1 mps 653 mmHg 67%
    04:00 0°C° 0 mm 1 mps 653 mmHg 68%
    05:00 0°C° 0 mm 1 mps 654 mmHg 69%
    06:00 0°C° 0 mm 1 mps 654 mmHg 70%
    07:00 +1°C° 0 mm 1 mps 654 mmHg 68%
    08:00 +2°C° 0 mm 1 mps 655 mmHg 66%
    09:00 +2°C° 0 mm 1 mps 655 mmHg 64%
    10:00 +3°C° 0 mm 1 mps 656 mmHg 66%
    11:00 +2°C° 0 mm 2 mps 656 mmHg 67%
    12:00 +3°C° 0 mm 2 mps 656 mmHg 68%
    13:00 +2°C° 0.3 mm 2 mps 656 mmHg 73%
    14:00 +2°C° 0.3 mm 2 mps 656 mmHg 77%
    15:00 +1°C° 0.3 mm 2 mps 656 mmHg 81%
    16:00 -1°C° 0.2 mm 2 mps 657 mmHg 84%
    17:00 -1°C° 0.2 mm 2 mps 657 mmHg 86%
    18:00 -2°C° 0.2 mm 2 mps 658 mmHg 89%
    19:00 -3°C° 0.1 mm 2 mps 658 mmHg 89%
    20:00 -1°C° 0.1 mm 1 mps 659 mmHg 90%
    21:00 -1°C° 0.1 mm 1 mps 660 mmHg 90%
    22:00 -2°C° 0.1 mm 1 mps 660 mmHg 90%
    23:00 -2°C° 0.1 mm 1 mps 661 mmHg 90%

    20 February, Wednesday

    Time Temperature Precipitation Wind Pressure Humidity
    00:00 -2°C° 0.1 mm 1 mps 661 mmHg 89%
    01:00 -2°C° 0.1 mm 1 mps 661 mmHg 89%
    02:00 -2°C° 0.1 mm 1 mps 662 mmHg 89%
    03:00 -3°C° 0.1 mm 0 mps 662 mmHg 89%
    04:00 -3°C° 0 mm 1 mps 662 mmHg 88%
    05:00 -3°C° 0 mm 1 mps 662 mmHg 87%
    06:00 -3°C° 0 mm 1 mps 662 mmHg 87%
    07:00 -2°C° 0 mm 1 mps 663 mmHg 84%
    08:00 -1°C° 0 mm 1 mps 663 mmHg 80%
    09:00 -3°C° 0 mm 2 mps 664 mmHg 77%
    10:00 -2°C° 0 mm 2 mps 664 mmHg 75%
    11:00 -1°C° 0 mm 2 mps 664 mmHg 72%
    12:00 +1°C° 0 mm 2 mps 663 mmHg 70%
    13:00 +1°C° 0 mm 2 mps 663 mmHg 70%
    14:00 +2°C° 0 mm 2 mps 663 mmHg 70%
    15:00 +2°C° 0 mm 2 mps 662 mmHg 70%
    16:00 +1°C° 0 mm 2 mps 662 mmHg 75%
    17:00 -1°C° 0 mm 2 mps 662 mmHg 80%
    18:00 +1°C° 0 mm 1 mps 662 mmHg 85%
    19:00 0°C° 0 mm 1 mps 662 mmHg 85%
    20:00 0°C° 0 mm 1 mps 662 mmHg 86%
    21:00 0°C° 0 mm 1 mps 662 mmHg 86%
    22:00 0°C° 0 mm 1 mps 662 mmHg 85%
    23:00 0°C° 0 mm 1 mps 661 mmHg 83%

    21 February, Thursday

    Time Temperature Precipitation Wind Pressure Humidity
    00:00 -1°C° 0 mm 0 mps 661 mmHg 81%
    01:00 -2°C° 0 mm 0 mps 661 mmHg 79%
    02:00 -2°C° 0 mm 0 mps 660 mmHg 77%
    03:00 -2°C° 0 mm 0 mps 660 mmHg 75%
    04:00 -2°C° 0 mm 0 mps 660 mmHg 73%
    05:00 -2°C° 0 mm 0 mps 660 mmHg 70%
    06:00 -1°C° 0 mm 1 mps 659 mmHg 68%
    07:00 0°C° 0 mm 1 mps 660 mmHg 63%
    08:00 +1°C° 0 mm 1 mps 660 mmHg 58%
    09:00 +2°C° 0 mm 1 mps 660 mmHg 53%
    10:00 +3°C° 0 mm 1 mps 660 mmHg 53%
    11:00 +4°C° 0 mm 1 mps 660 mmHg 53%
    12:00 +4°C° 0 mm 2 mps 660 mmHg 53%
    13:00 +4°C° 0 mm 2 mps 659 mmHg 54%
    14:00 +4°C° 0 mm 2 mps 659 mmHg 56%
    15:00 +5°C° 0 mm 2 mps 659 mmHg 58%
    16:00 +3°C° 0 mm 2 mps 659 mmHg 63%
    17:00 +3°C° 0 mm 1 mps 659 mmHg 69%
    18:00 +2°C° 0 mm 1 mps 658 mmHg 75%
    19:00 +2°C° 0 mm 1 mps 659 mmHg 74%
    20:00 +2°C° 0 mm 1 mps 659 mmHg 74%
    21:00 +2°C° 0 mm 1 mps 659 mmHg 73%
    22:00 +1°C° 0 mm 1 mps 659 mmHg 69%
    23:00 +1°C° 0 mm 1 mps 659 mmHg 66%

    22 February, Friday

    Time Temperature Precipitation Wind Pressure Humidity
    00:00 +1°C° 0 mm 1 mps 659 mmHg 62%
    01:00 +1°C° 0 mm 1 mps 659 mmHg 61%
    02:00 +1°C° 0 mm 1 mps 659 mmHg 59%
    03:00 0°C° 0 mm 1 mps 659 mmHg 58%
    04:00 0°C° 0 mm 1 mps 658 mmHg 57%
    05:00 0°C° 0 mm 1 mps 658 mmHg 55%
    06:00 0°C° 0 mm 1 mps 658 mmHg 54%
    07:00 +1°C° 0 mm 1 mps 659 mmHg 50%
    08:00 +2°C° 0 mm 1 mps 659 mmHg 47%
    09:00 +3°C° 0 mm 1 mps 659 mmHg 43%
    10:00 +4°C° 0 mm 1 mps 659 mmHg 43%
    11:00 +4°C° 0 mm 2 mps 659 mmHg 43%
    12:00 +5°C° 0 mm 2 mps 659 mmHg 42%
    13:00 +5°C° 0 mm 2 mps 659 mmHg 43%
    14:00 +5°C° 0 mm 2 mps 659 mmHg 43%
    15:00 +6°C° 0 mm 2 mps 659 mmHg 44%
    16:00 +4°C° 0 mm 2 mps 659 mmHg 49%
    17:00 +3°C° 0 mm 2 mps 659 mmHg 54%
    18:00 +3°C° 0 mm 1 mps 659 mmHg 59%
    19:00 +2°C° 0 mm 1 mps 659 mmHg 61%
    20:00 +2°C° 0 mm 1 mps 660 mmHg 63%
    21:00 +1°C° 0 mm 1 mps 660 mmHg 64%
    22:00 +1°C° 0 mm 1 mps 660 mmHg 64%
    23:00 +1°C° 0 mm 1 mps 660 mmHg 64%
    Show more